User: anonymous   Login
Location: Kott?ru
(16.6209°N, 80.6208°E)
Time: 23:02:34
(UTC+00:00)
Language:

Max Valier Satellite - Orbit

View from above orbital plane
View from above orbital plane
View from above satellite
View from above satellite

Ground track
Ground track

The orbit data is extracted from the following two-line orbital elements,

1 42778U 17036P   24151.58880739  .00250551  00000-0  10650-2 0  9998
2 42778  97.0895 189.2436 0005106 201.8856 158.2197 15.84621765386794
Epoch (UTC): 30 May 2024 14:07:52
Eccentricity: 0.0005106
inclination: 97.0895°
perigee height: 314 km
apogee height: 321 km
right ascension of ascending node: 189.2436°
argument of perigee: 201.8856°
revolutions per day: 15.84621765
mean anomaly at epoch: 158.2197°
orbit number at epoch: 38679

The dashed part of the orbit path shows where the satellite is in the earth's shadow,  

DLR